QPF
0.00 0.00 0.00 0.00 0.00 0.01 0.01 0.01 0.01 0.01 0.01 0.01 0.01 0.01 0.01 0.03 0.04 0.04 0.03 0.02 0.02 0.02 0.03 0.02 0.03 0.04 0.06 0.05 0.05 0.07 0.05 0.02 0.02 0.02 0.03 0.03 0.03 0.04 0.04 0.03 0.02 0.02 0.02 0.03
0.00 0.00 0.00 0.00 0.00 0.01 0.01 0.01 0.01 0.01 0.01 0.02 0.01 0.00 0.01 0.02 0.03 0.03 0.02 0.02 0.02 0.03 0.03 0.03 0.05 0.07 0.06 0.06 0.07 0.08 0.04 0.02 0.02 0.01 0.01 0.02 0.02 0.02 0.02 0.02 0.02 0.02 0.03 0.03
0.01 0.01 0.01 0.01 0.01 0.00 0.00 0.00 0.00 0.01 0.01 0.01 0.01 0.01 0.02 0.03 0.04 0.03 0.02 0.02 0.02 0.03 0.04 0.04 0.06 0.06 0.06 0.08 0.09 0.06 0.03 0.03 0.02 0.02 0.02 0.02 0.01 0.01 0.01 0.01 0.02 0.02 0.01 0.01
0.01 0.02 0.01 0.01 0.00 0.00 0.00 0.01 0.00 0.00 0.01 0.01 0.01 0.01 0.02 0.04 0.05 0.03 0.02 0.02 0.02 0.02 0.02 0.03 0.05 0.05 0.07 0.10 0.06 0.02 0.02 0.02 0.02 0.02 0.02 0.02 0.02 0.01 0.01 0.02 0.02 0.02 0.01 0.01
0.02 0.01 0.01 0.01 0.00 0.00 0.00 0.01 0.01 0.00 0.00 0.00 0.00 0.01 0.01 0.03 0.05 0.04 0.03 0.02 0.02 0.02 0.02 0.03 0.05 0.07 0.07 0.04 0.02 0.01 0.02 0.02 0.02 0.02 0.02 0.01 0.01 0.01 0.01 0.01 0.01 0.01 0.01 0.02
0.01 0.01 0.01 0.01 0.01 0.00 0.01 0.01 0.01 0.01 0.00 0.00 0.00 0.01 0.01 0.02 0.04 0.05 0.03 0.02 0.02 0.02 0.02 0.03 0.04 0.04 0.02 0.01 0.01 0.02 0.02 0.03 0.03 0.02 0.01 0.01 0.01 0.01 0.01 0.01 0.01 0.01 0.01 0.02
0.01 0.01 0.01 0.01 0.01 0.01 0.01 0.01 0.00 0.01 0.00 0.00 0.00 0.02 0.02 0.02 0.04 0.05 0.04 0.02 0.02 0.02 0.03 0.03 0.04 0.02 0.02 0.01 0.02 0.02 0.03 0.02 0.01 0.01 0.01 0.01 0.01 0.02 0.01 0.01 0.01 0.01 0.01 0.01
0.01 0.01 0.02 0.01 0.01 0.01 0.01 0.00 0.00 0.00 0.00 0.00 0.01 0.01 0.03 0.04 0.05 0.05 0.04 0.03 0.03 0.03 0.03 0.03 0.03 0.02 0.02 0.02 0.02 0.04 0.03 0.02 0.01 0.01 0.01 0.01 0.02 0.02 0.02 0.01 0.01 0.01 0.01 0.03
0.00 0.01 0.00 0.00 0.01 0.00 0.00 0.00 0.00 0.00 0.00 0.00 0.01 0.01 0.02 0.02 0.03 0.04 0.03 0.04 0.04 0.03 0.02 0.02 0.02 0.02 0.03 0.02 0.03 0.03 0.02 0.02 0.02 0.01 0.01 0.01 0.02 0.02 0.01 0.01 0.01 0.01 0.02 0.04
0.00 0.00 0.00 0.00 0.00 0.00 0.00 0.00 0.00 0.00 0.00 0.01 0.01 0.02 0.01 0.01 0.01 0.02 0.03 0.03 0.03 0.03 0.02 0.02 0.02 0.02 0.03 0.02 0.02 0.02 0.01 0.01 0.01 0.01 0.01 0.02 0.03 0.03 0.03 0.02 0.01 0.02 0.02 0.03
0.01 0.00 0.00 0.00 0.00 0.00 0.00 0.00 0.00 0.00 0.00 0.01 0.02 0.01 0.01 0.01 0.01 0.02 0.03 0.03 0.03 0.03 0.02 0.02 0.02 0.02 0.02 0.02 0.02 0.01 0.01 0.00 0.00 0.01 0.01 0.02 0.02 0.02 0.02 0.02 0.02 0.01 0.01 0.02
0.00 0.00 0.00 0.00 0.00 0.00 0.01 0.00 0.00 0.00 0.01 0.01 0.02 0.01 0.01 0.01 0.01 0.01 0.02 0.02 0.01 0.01 0.01 0.01 0.01 0.01 0.01 0.02 0.02 0.01 0.01 0.01 0.01 0.01 0.01 0.01 0.02 0.01 0.01 0.01 0.01 0.01 0.02 0.02
0.00 0.00 0.00 0.00 0.00 0.00 0.01 0.00 0.00 0.01 0.02 0.02 0.01 0.00 0.00 0.01 0.01 0.01 0.01 0.01 0.00 0.00 0.01 0.01 0.01 0.01 0.01 0.02 0.01 0.02 0.01 0.01 0.01 0.01 0.02 0.02 0.02 0.02 0.02 0.02 0.02 0.02 0.03 0.03
0.00 0.00 0.00 0.00 0.00 0.00 0.00 0.00 0.00 0.01 0.01 0.02 0.01 0.00 0.00 0.00 0.00 0.00 0.00 0.00 0.00 0.00 0.00 0.00 0.00 0.01 0.02 0.01 0.01 0.02 0.02 0.01 0.01 0.02 0.02 0.03 0.03 0.02 0.02 0.01 0.02 0.02 0.02 0.04
0.01 0.00 0.00 0.00 0.00 0.00 0.01 0.00 0.00 0.01 0.02 0.01 0.01 0.01 0.00 0.00 0.00 0.00 0.00 0.00 0.00 0.00 0.00 0.00 0.00 0.01 0.03 0.01 0.01 0.02 0.02 0.01 0.02 0.02 0.02 0.02 0.02 0.02 0.01 0.01 0.02 0.03 0.02 0.01
0.01 0.01 0.01 0.01 0.01 0.00 0.01 0.01 0.01 0.01 0.02 0.01 0.01 0.01 0.00 0.00 0.00 0.00 0.00 0.00 0.00 0.00 0.00 0.00 0.00 0.02 0.02 0.01 0.01 0.01 0.01 0.01 0.01 0.01 0.01 0.01 0.01 0.02 0.01 0.01 0.02 0.02 0.02 0.01
0.01 0.01 0.01 0.02 0.01 0.01 0.01 0.01 0.01 0.01 0.01 0.01 0.01 0.01 0.00 0.00 0.00 0.00 0.00 0.00 0.00 0.00 0.01 0.01 0.01 0.01 0.01 0.01 0.01 0.01 0.01 0.01 0.02 0.02 0.01 0.01 0.01 0.01 0.02 0.03 0.02 0.01 0.01 0.02
0.01 0.01 0.01 0.02 0.01 0.01 0.01 0.01 0.01 0.01 0.01 0.01 0.00 0.00 0.00 0.00 0.00 0.00 0.00 0.00 0.00 0.01 0.01 0.01 0.01 0.01 0.01 0.01 0.01 0.01 0.01 0.01 0.02 0.01 0.01 0.02 0.02 0.02 0.02 0.02 0.01 0.01 0.00 0.01
0.02 0.01 0.01 0.01 0.00 0.00 0.00 0.01 0.01 0.01 0.01 0.01 0.01 0.00 0.00 0.00 0.00 0.00 0.00 0.00 0.00 0.00 0.00 0.00 0.00 0.00 0.01 0.01 0.01 0.01 0.01 0.01 0.01 0.01 0.01 0.02 0.02 0.03 0.02 0.01 0.01 0.01 0.00 0.00
0.01 0.01 0.01 0.01 0.00 0.00 0.00 0.00 0.00 0.00 0.00 0.01 0.01 0.00 0.00 0.00 0.00 0.00 0.00 0.01 0.01 0.00 0.00 0.00 0.00 0.00 0.01 0.01 0.01 0.01 0.01 0.01 0.01 0.01 0.01 0.02 0.03 0.03 0.02 0.02 0.01 0.01 0.01 0.00
0.02 0.01 0.01 0.01 0.00 0.00 0.00 0.00 0.00 0.00 0.00 0.00 0.00 0.00 0.00 0.01 0.01 0.01 0.00 0.01 0.01 0.01 0.01 0.01 0.00 0.00 0.01 0.01 0.01 0.02 0.02 0.01 0.01 0.01 0.01 0.02 0.03 0.02 0.02 0.02 0.01 0.00 0.00 0.00
0.01 0.02 0.02 0.02 0.01 0.01 0.00 0.00 0.00 0.00 0.00 0.00 0.00 0.00 0.01 0.01 0.02 0.01 0.00 0.01 0.01 0.01 0.01 0.01 0.00 0.01 0.01 0.01 0.01 0.01 0.01 0.01 0.01 0.01 0.01 0.02 0.03 0.02 0.02 0.02 0.01 0.00 0.00 0.01
0.01 0.01 0.02 0.02 0.01 0.01 0.00 0.00 0.00 0.00 0.01 0.01 0.01 0.01 0.02 0.01 0.02 0.01 0.01 0.01 0.01 0.00 0.00 0.00 0.00 0.00 0.01 0.01 0.01 0.00 0.00 0.01 0.01 0.02 0.02 0.02 0.02 0.02 0.02 0.01 0.01 0.01 0.01 0.00
0.01 0.01 0.02 0.02 0.01 0.01 0.01 0.00 0.00 0.00 0.01 0.01 0.01 0.02 0.03 0.02 0.02 0.02 0.03 0.02 0.01 0.00 0.00 0.00 0.00 0.00 0.01 0.01 0.00 0.00 0.00 0.01 0.01 0.01 0.01 0.02 0.02 0.02 0.01 0.01 0.01 0.01 0.01 0.00
0.01 0.01 0.02 0.02 0.01 0.01 0.01 0.00 0.00 0.00 0.00 0.01 0.01 0.01 0.03 0.03 0.03 0.02 0.02 0.02 0.01 0.00 0.00 0.00 0.00 0.00 0.00 0.00 0.00 0.00 0.00 0.00 0.00 0.01 0.01 0.02 0.02 0.02 0.01 0.01 0.01 0.01 0.00 0.00
0.01 0.02 0.02 0.01 0.01 0.01 0.01 0.01 0.01 0.01 0.01 0.00 0.01 0.02 0.03 0.04 0.03 0.02 0.02 0.01 0.01 0.01 0.00 0.00 0.00 0.00 0.00 0.00 0.01 0.01 0.01 0.00 0.00 0.00 0.01 0.01 0.01 0.01 0.01 0.01 0.01 0.00 0.00 0.00
0.01 0.01 0.01 0.01 0.01 0.01 0.01 0.01 0.01 0.01 0.01 0.01 0.01 0.01 0.04 0.05 0.03 0.02 0.02 0.01 0.01 0.01 0.00 0.00 0.00 0.00 0.00 0.00 0.00 0.01 0.01 0.01 0.01 0.01 0.02 0.02 0.01 0.01 0.01 0.01 0.01 0.00 0.00 0.00
MSLP
1013.28 1013.15 1013.00 1012.87 1012.79 1012.74 1012.74 1012.77 1012.82 1012.88 1012.95 1013.02 1013.12 1013.24 1013.39 1013.59 1013.81 1014.06 1014.29 1014.49 1014.63 1014.67 1014.61 1014.42 1014.12 1013.72 1013.22 1012.65 1012.04 1011.42 1010.80 1010.21 1009.67 1009.18 1008.77 1008.42 1008.15 1007.94 1007.79 1007.69 1007.62 1007.59 1007.56 1007.53
1013.50 1013.29 1013.04 1012.79 1012.57 1012.41 1012.31 1012.28 1012.31 1012.39 1012.52 1012.68 1012.87 1013.10 1013.34 1013.61 1013.88 1014.14 1014.37 1014.55 1014.66 1014.68 1014.59 1014.40 1014.10 1013.69 1013.21 1012.66 1012.06 1011.45 1010.84 1010.26 1009.71 1009.23 1008.81 1008.47 1008.20 1008.00 1007.86 1007.78 1007.73 1007.70 1007.68 1007.65
1013.67 1013.40 1013.07 1012.72 1012.39 1012.12 1011.93 1011.84 1011.84 1011.93 1012.10 1012.33 1012.62 1012.93 1013.26 1013.60 1013.91 1014.19 1014.42 1014.58 1014.66 1014.65 1014.53 1014.32 1014.01 1013.61 1013.14 1012.61 1012.04 1011.45 1010.85 1010.28 1009.74 1009.25 1008.83 1008.47 1008.19 1007.98 1007.83 1007.74 1007.68 1007.64 1007.61 1007.57
1013.74 1013.42 1013.04 1012.61 1012.21 1011.86 1011.60 1011.45 1011.43 1011.52 1011.72 1012.00 1012.36 1012.75 1013.15 1013.55 1013.90 1014.20 1014.42 1014.56 1014.60 1014.55 1014.40 1014.15 1013.83 1013.43 1012.98 1012.47 1011.92 1011.36 1010.79 1010.24 1009.70 1009.21 1008.76 1008.38 1008.07 1007.83 1007.65 1007.52 1007.44 1007.38 1007.32 1007.26
1013.63 1013.31 1012.89 1012.44 1011.99 1011.60 1011.29 1011.11 1011.06 1011.15 1011.37 1011.69 1012.10 1012.55 1013.01 1013.45 1013.83 1014.13 1014.34 1014.45 1014.45 1014.35 1014.16 1013.89 1013.55 1013.15 1012.70 1012.22 1011.71 1011.17 1010.63 1010.09 1009.56 1009.05 1008.59 1008.17 1007.82 1007.53 1007.31 1007.14 1007.02 1006.94 1006.86 1006.78
1013.35 1013.03 1012.62 1012.16 1011.71 1011.30 1010.97 1010.77 1010.71 1010.80 1011.04 1011.39 1011.83 1012.33 1012.82 1013.29 1013.69 1013.99 1014.18 1014.26 1014.22 1014.07 1013.84 1013.53 1013.17 1012.77 1012.33 1011.87 1011.38 1010.88 1010.36 1009.83 1009.30 1008.78 1008.29 1007.84 1007.44 1007.10 1006.84 1006.63 1006.49 1006.38 1006.30 1006.21
1012.90 1012.59 1012.21 1011.78 1011.35 1010.95 1010.63 1010.43 1010.38 1010.48 1010.72 1011.09 1011.56 1012.07 1012.59 1013.07 1013.48 1013.77 1013.94 1013.99 1013.91 1013.72 1013.45 1013.12 1012.74 1012.33 1011.90 1011.45 1010.98 1010.50 1010.00 1009.47 1008.94 1008.41 1007.88 1007.40 1006.96 1006.59 1006.29 1006.06 1005.90 1005.79 1005.71 1005.64
1012.33 1012.06 1011.71 1011.33 1010.93 1010.57 1010.28 1010.10 1010.06 1010.16 1010.42 1010.80 1011.28 1011.81 1012.34 1012.82 1013.22 1013.50 1013.65 1013.66 1013.55 1013.33 1013.03 1012.68 1012.28 1011.87 1011.44 1011.00 1010.54 1010.07 1009.57 1009.05 1008.50 1007.95 1007.40 1006.89 1006.42 1006.02 1005.70 1005.47 1005.31 1005.22 1005.16 1005.13
1011.74 1011.49 1011.19 1010.85 1010.50 1010.17 1009.92 1009.77 1009.75 1009.87 1010.14 1010.53 1011.01 1011.54 1012.07 1012.54 1012.93 1013.20 1013.33 1013.32 1013.18 1012.94 1012.62 1012.25 1011.84 1011.42 1010.99 1010.55 1010.09 1009.62 1009.11 1008.58 1008.02 1007.44 1006.87 1006.34 1005.85 1005.45 1005.13 1004.90 1004.77 1004.70 1004.68 1004.68
1011.19 1010.96 1010.69 1010.38 1010.08 1009.79 1009.58 1009.46 1009.47 1009.61 1009.89 1010.28 1010.76 1011.29 1011.81 1012.27 1012.64 1012.89 1013.00 1012.97 1012.82 1012.56 1012.23 1011.85 1011.43 1011.01 1010.57 1010.12 1009.66 1009.17 1008.65 1008.09 1007.51 1006.92 1006.33 1005.78 1005.29 1004.88 1004.57 1004.37 1004.26 1004.22 1004.24 1004.27
1010.75 1010.52 1010.26 1009.97 1009.69 1009.44 1009.25 1009.17 1009.20 1009.36 1009.65 1010.06 1010.54 1011.05 1011.56 1012.01 1012.36 1012.59 1012.68 1012.64 1012.47 1012.21 1011.87 1011.48 1011.06 1010.63 1010.18 1009.73 1009.25 1008.74 1008.20 1007.62 1007.01 1006.39 1005.78 1005.22 1004.73 1004.33 1004.03 1003.84 1003.75 1003.74 1003.78 1003.82
1010.44 1010.18 1009.90 1009.60 1009.33 1009.09 1008.93 1008.87 1008.92 1009.11 1009.42 1009.84 1010.32 1010.83 1011.32 1011.75 1012.08 1012.29 1012.36 1012.30 1012.12 1011.85 1011.51 1011.12 1010.70 1010.26 1009.81 1009.35 1008.85 1008.32 1007.75 1007.15 1006.52 1005.87 1005.25 1004.67 1004.17 1003.77 1003.47 1003.29 1003.21 1003.20 1003.23 1003.27
1010.22 1009.91 1009.58 1009.25 1008.96 1008.72 1008.57 1008.53 1008.61 1008.83 1009.16 1009.59 1010.09 1010.60 1011.07 1011.48 1011.79 1011.97 1012.02 1011.94 1011.75 1011.47 1011.13 1010.74 1010.32 1009.89 1009.44 1008.96 1008.46 1007.91 1007.32 1006.69 1006.04 1005.37 1004.72 1004.13 1003.61 1003.19 1002.88 1002.68 1002.58 1002.55 1002.56 1002.57
1010.07 1009.67 1009.27 1008.89 1008.55 1008.29 1008.14 1008.12 1008.23 1008.48 1008.85 1009.31 1009.81 1010.32 1010.80 1011.19 1011.47 1011.63 1011.65 1011.55 1011.34 1011.05 1010.70 1010.32 1009.91 1009.48 1009.03 1008.56 1008.05 1007.50 1006.89 1006.25 1005.57 1004.88 1004.21 1003.59 1003.04 1002.59 1002.24 1002.00 1001.86 1001.78 1001.74 1001.70
1009.92 1009.42 1008.93 1008.47 1008.08 1007.80 1007.65 1007.64 1007.78 1008.07 1008.47 1008.96 1009.49 1010.01 1010.48 1010.85 1011.11 1011.24 1011.23 1011.11 1010.88 1010.58 1010.23 1009.85 1009.45 1009.03 1008.60 1008.14 1007.64 1007.08 1006.48 1005.82 1005.13 1004.42 1003.71 1003.06 1002.47 1001.97 1001.57 1001.27 1001.06 1000.92 1000.81 1000.72
1009.75 1009.15 1008.56 1008.02 1007.58 1007.26 1007.10 1007.11 1007.28 1007.60 1008.05 1008.57 1009.13 1009.66 1010.12 1010.48 1010.71 1010.81 1010.78 1010.63 1010.38 1010.07 1009.72 1009.35 1008.96 1008.57 1008.15 1007.71 1007.22 1006.68 1006.07 1005.41 1004.71 1003.97 1003.24 1002.54 1001.90 1001.34 1000.88 1000.51 1000.22 1000.01 999.85 999.70
1009.56 1008.86 1008.18 1007.57 1007.07 1006.72 1006.56 1006.58 1006.78 1007.14 1007.63 1008.18 1008.76 1009.29 1009.75 1010.10 1010.31 1010.37 1010.31 1010.14 1009.87 1009.56 1009.21 1008.84 1008.47 1008.10 1007.71 1007.28 1006.81 1006.28 1005.69 1005.02 1004.31 1003.55 1002.79 1002.05 1001.36 1000.74 1000.21 999.77 999.42 999.14 998.92 998.74
1009.39 1008.60 1007.85 1007.17 1006.63 1006.27 1006.10 1006.13 1006.36 1006.75 1007.26 1007.83 1008.42 1008.96 1009.41 1009.73 1009.91 1009.95 1009.86 1009.66 1009.39 1009.06 1008.71 1008.36 1008.01 1007.65 1007.28 1006.88 1006.42 1005.91 1005.31 1004.65 1003.92 1003.15 1002.36 1001.58 1000.84 1000.18 999.59 999.10 998.70 998.38 998.13 997.93
1009.26 1008.43 1007.63 1006.92 1006.35 1005.97 1005.80 1005.84 1006.08 1006.48 1007.00 1007.58 1008.16 1008.68 1009.11 1009.40 1009.56 1009.57 1009.45 1009.24 1008.95 1008.62 1008.27 1007.93 1007.58 1007.24 1006.88 1006.49 1006.04 1005.53 1004.93 1004.26 1003.52 1002.73 1001.92 1001.12 1000.35 999.66 999.05 998.53 998.11 997.78 997.53 997.35
1009.23 1008.38 1007.57 1006.85 1006.27 1005.89 1005.72 1005.76 1005.99 1006.38 1006.89 1007.45 1008.00 1008.49 1008.88 1009.13 1009.25 1009.23 1009.09 1008.86 1008.56 1008.23 1007.89 1007.55 1007.21 1006.87 1006.51 1006.11 1005.65 1005.12 1004.51 1003.83 1003.07 1002.27 1001.45 1000.64 999.87 999.18 998.57 998.07 997.67 997.36 997.15 997.02
1009.31 1008.48 1007.69 1006.98 1006.42 1006.05 1005.87 1005.90 1006.11 1006.47 1006.93 1007.44 1007.93 1008.37 1008.70 1008.91 1008.99 1008.94 1008.78 1008.53 1008.23 1007.89 1007.55 1007.20 1006.85 1006.50 1006.12 1005.70 1005.22 1004.66 1004.03 1003.32 1002.55 1001.74 1000.92 1000.13 999.39 998.73 998.17 997.71 997.37 997.13 996.99 996.93
1009.50 1008.72 1007.98 1007.31 1006.77 1006.40 1006.22 1006.22 1006.39 1006.69 1007.09 1007.52 1007.94 1008.30 1008.56 1008.71 1008.74 1008.66 1008.48 1008.22 1007.91 1007.57 1007.22 1006.86 1006.50 1006.11 1005.70 1005.24 1004.72 1004.12 1003.45 1002.72 1001.93 1001.13 1000.33 999.58 998.89 998.30 997.82 997.46 997.21 997.07 997.02 997.05
1009.76 1009.06 1008.38 1007.77 1007.26 1006.90 1006.71 1006.67 1006.78 1007.01 1007.31 1007.65 1007.97 1008.24 1008.42 1008.51 1008.49 1008.37 1008.17 1007.90 1007.58 1007.23 1006.87 1006.49 1006.10 1005.68 1005.22 1004.71 1004.13 1003.48 1002.78 1002.02 1001.23 1000.44 999.69 998.99 998.39 997.90 997.53 997.29 997.17 997.15 997.21 997.34
1010.04 1009.43 1008.83 1008.27 1007.81 1007.46 1007.25 1007.17 1007.21 1007.34 1007.55 1007.77 1007.99 1008.16 1008.26 1008.28 1008.21 1008.05 1007.83 1007.54 1007.22 1006.86 1006.48 1006.08 1005.65 1005.18 1004.67 1004.09 1003.46 1002.77 1002.03 1001.25 1000.48 999.72 999.03 998.42 997.92 997.56 997.32 997.22 997.23 997.34 997.53 997.76
1010.29 1009.77 1009.25 1008.75 1008.33 1007.99 1007.75 1007.63 1007.60 1007.64 1007.74 1007.86 1007.97 1008.04 1008.06 1008.01 1007.89 1007.70 1007.45 1007.15 1006.82 1006.45 1006.05 1005.61 1005.14 1004.63 1004.06 1003.43 1002.75 1002.02 1001.26 1000.49 999.74 999.04 998.42 997.91 997.54 997.31 997.21 997.25 997.41 997.65 997.94 998.26
1010.45 1010.02 1009.57 1009.14 1008.74 1008.41 1008.16 1007.99 1007.90 1007.86 1007.86 1007.88 1007.90 1007.88 1007.82 1007.71 1007.55 1007.33 1007.06 1006.75 1006.39 1006.01 1005.58 1005.12 1004.61 1004.05 1003.44 1002.77 1002.06 1001.31 1000.55 999.80 999.09 998.47 997.94 997.55 997.31 997.21 997.26 997.44 997.71 998.06 998.45 998.83
1010.50 1010.14 1009.75 1009.36 1009.00 1008.69 1008.43 1008.22 1008.08 1007.97 1007.90 1007.84 1007.78 1007.69 1007.57 1007.42 1007.21 1006.97 1006.68 1006.35 1005.98 1005.58 1005.13 1004.64 1004.10 1003.51 1002.87 1002.18 1001.45 1000.71 999.98 999.28 998.64 998.10 997.69 997.42 997.30 997.33 997.51 997.79 998.17 998.60 999.04 999.47
Thickness
5727 5728 5725 5720 5717 5716 5711 5708 5703 5701 5699 5696 5693 5689 5686 5683 5680 5678 5676 5673 5670 5667 5665 5662 5660 5658 5656 5654 5651 5648 5644 5641 5637 5634 5632 5630 5629 5627 5625 5623 5623 5621 5620 5618
5718 5723 5720 5713 5714 5712 5708 5706 5703 5699 5695 5697 5692 5689 5683 5679 5676 5673 5671 5669 5667 5664 5661 5658 5655 5653 5652 5650 5648 5645 5642 5639 5636 5633 5631 5629 5627 5625 5623 5622 5620 5619 5617 5615
5712 5718 5713 5703 5709 5707 5703 5703 5698 5690 5689 5690 5685 5681 5677 5675 5673 5669 5667 5665 5663 5660 5657 5654 5652 5650 5649 5648 5646 5643 5640 5637 5634 5632 5631 5628 5627 5624 5622 5619 5618 5616 5614 5613
5709 5704 5690 5704 5714 5708 5701 5698 5698 5691 5688 5685 5681 5678 5677 5674 5670 5666 5664 5661 5659 5656 5655 5653 5651 5650 5647 5646 5644 5641 5638 5635 5634 5631 5630 5627 5625 5622 5620 5617 5615 5614 5612 5611
5701 5698 5696 5702 5704 5701 5693 5690 5693 5688 5684 5683 5681 5677 5676 5673 5668 5663 5661 5658 5656 5654 5653 5651 5649 5647 5645 5643 5641 5640 5637 5634 5633 5631 5629 5626 5624 5621 5618 5616 5614 5613 5611 5609
5695 5686 5684 5693 5701 5703 5693 5682 5690 5685 5680 5678 5674 5668 5670 5668 5665 5662 5658 5656 5654 5652 5651 5648 5647 5645 5643 5642 5640 5638 5636 5634 5633 5630 5627 5625 5622 5620 5618 5616 5615 5613 5611 5609
5689 5683 5689 5695 5696 5693 5676 5676 5683 5681 5677 5673 5669 5666 5666 5665 5661 5658 5655 5653 5651 5650 5648 5646 5645 5643 5641 5640 5638 5637 5636 5634 5632 5630 5627 5624 5621 5619 5618 5617 5615 5612 5610 5608
5684 5678 5679 5689 5686 5678 5675 5678 5678 5676 5673 5669 5668 5666 5664 5661 5658 5655 5652 5650 5649 5647 5646 5645 5643 5641 5639 5637 5638 5637 5636 5633 5631 5629 5627 5625 5621 5619 5618 5616 5614 5612 5610 5609
5682 5681 5681 5683 5679 5678 5676 5673 5672 5671 5670 5666 5664 5662 5661 5658 5655 5653 5650 5648 5646 5645 5644 5643 5641 5640 5638 5637 5637 5636 5634 5633 5631 5629 5627 5625 5622 5621 5620 5617 5617 5616 5613 5611
5672 5677 5677 5677 5677 5675 5672 5669 5668 5667 5665 5663 5660 5659 5657 5655 5652 5650 5648 5645 5644 5643 5642 5641 5640 5640 5638 5638 5637 5635 5634 5632 5631 5629 5628 5626 5625 5624 5622 5620 5618 5616 5614 5612
5664 5669 5669 5670 5669 5668 5666 5664 5662 5661 5660 5659 5657 5655 5653 5651 5650 5648 5645 5644 5643 5641 5640 5640 5640 5639 5639 5638 5636 5635 5634 5633 5632 5632 5630 5627 5625 5621 5621 5617 5615 5613 5613 5611
5659 5662 5658 5660 5662 5661 5657 5655 5655 5653 5653 5654 5653 5651 5649 5648 5646 5645 5643 5642 5641 5640 5640 5639 5639 5639 5639 5638 5636 5634 5633 5633 5634 5634 5631 5630 5627 5624 5617 5616 5612 5609 5605 5603
5655 5656 5655 5655 5655 5654 5651 5650 5649 5648 5647 5647 5648 5646 5644 5643 5642 5641 5641 5640 5639 5639 5639 5638 5638 5638 5639 5638 5637 5635 5633 5633 5635 5634 5633 5631 5630 5628 5625 5619 5613 5609 5606 5602
5647 5645 5643 5645 5645 5646 5645 5645 5644 5643 5643 5643 5641 5640 5639 5638 5638 5637 5637 5638 5638 5638 5637 5637 5638 5638 5638 5637 5636 5634 5634 5633 5633 5633 5633 5632 5631 5631 5630 5627 5624 5620 5611 5604
5639 5638 5637 5637 5638 5638 5638 5638 5636 5636 5636 5636 5635 5634 5633 5633 5633 5634 5635 5636 5636 5636 5637 5637 5637 5637 5637 5637 5635 5634 5635 5635 5634 5634 5634 5634 5633 5633 5632 5629 5627 5624 5621 5613
5630 5629 5629 5628 5629 5630 5630 5630 5629 5630 5629 5629 5629 5628 5628 5629 5630 5631 5632 5633 5632 5634 5635 5635 5635 5636 5636 5636 5634 5634 5634 5631 5630 5633 5634 5635 5634 5633 5632 5631 5629 5626 5623 5619
5619 5618 5619 5620 5620 5621 5622 5623 5623 5623 5623 5622 5622 5623 5623 5624 5626 5627 5628 5630 5631 5632 5632 5632 5633 5635 5635 5634 5634 5635 5635 5633 5628 5632 5635 5635 5635 5634 5634 5632 5630 5628 5624 5618
5613 5613 5613 5613 5614 5615 5615 5616 5617 5617 5617 5617 5618 5618 5618 5619 5621 5623 5624 5626 5627 5629 5631 5631 5632 5632 5633 5633 5633 5635 5635 5635 5634 5634 5634 5634 5634 5635 5635 5634 5632 5628 5626 5621
5604 5605 5606 5607 5608 5609 5609 5610 5610 5611 5611 5612 5612 5612 5614 5616 5617 5619 5621 5622 5624 5626 5628 5630 5627 5629 5631 5631 5631 5632 5634 5635 5635 5635 5635 5632 5634 5636 5635 5634 5632 5629 5626 5622
5595 5597 5598 5600 5601 5603 5603 5604 5604 5605 5605 5606 5607 5608 5609 5612 5614 5616 5618 5619 5622 5625 5626 5626 5626 5628 5630 5630 5627 5632 5633 5634 5634 5635 5635 5636 5636 5636 5635 5634 5632 5629 5626 5622
5585 5588 5590 5592 5594 5596 5597 5598 5598 5599 5601 5602 5603 5605 5606 5608 5611 5613 5615 5618 5620 5622 5623 5621 5625 5628 5629 5629 5625 5631 5633 5633 5633 5634 5635 5635 5636 5636 5635 5633 5630 5628 5625 5621
5577 5579 5581 5584 5586 5588 5590 5592 5594 5596 5598 5599 5601 5602 5604 5605 5607 5610 5612 5616 5618 5617 5620 5624 5626 5626 5626 5624 5628 5631 5633 5633 5633 5634 5635 5635 5635 5635 5634 5632 5630 5627 5624 5621
5568 5571 5573 5577 5580 5582 5585 5587 5590 5593 5594 5596 5598 5600 5601 5603 5606 5608 5611 5614 5617 5614 5617 5622 5622 5620 5619 5623 5629 5631 5632 5633 5634 5635 5635 5635 5635 5634 5632 5631 5629 5627 5623 5620
5559 5562 5565 5569 5574 5577 5579 5583 5586 5588 5591 5594 5597 5598 5599 5601 5604 5608 5610 5610 5611 5611 5616 5618 5616 5617 5616 5625 5629 5631 5632 5634 5635 5636 5636 5636 5635 5634 5633 5631 5629 5626 5622 5618
5551 5554 5558 5562 5566 5571 5574 5578 5581 5585 5588 5593 5596 5597 5598 5600 5602 5605 5607 5609 5609 5609 5616 5617 5616 5617 5621 5626 5629 5631 5633 5635 5636 5636 5636 5635 5635 5634 5632 5630 5628 5624 5620 5616
5544 5548 5553 5556 5560 5565 5571 5575 5579 5583 5587 5590 5593 5595 5596 5598 5600 5603 5604 5607 5609 5609 5615 5619 5620 5619 5624 5628 5630 5631 5633 5634 5634 5634 5635 5635 5634 5633 5631 5628 5625 5622 5618 5615
5540 5544 5548 5553 5558 5562 5566 5571 5575 5579 5583 5586 5588 5590 5592 5595 5597 5600 5603 5606 5608 5611 5615 5619 5621 5623 5626 5628 5630 5631 5633 5634 5634 5634 5634 5634 5633 5631 5629 5626 5623 5620 5617 5613